Location: De Greiden
(52.9496°N, 5.9137°E)
Time: 22:23:40
(UTC+00:00)

MOS 1 Rocket - Pass Details

Date: 24 January 2021
Orbit: 614 x 830 km, 97.4° (Epoch: 01 March)

Event Time Altitude Azimuth Distance (km) Brightness Sun altitude
Exits shadow 18:38:59 - 7° (N) 2,358 5.9 -22.6°
Reaches altitude 10° 18:39:52 10° 4° (N) 2,002 5.6 -22.7°
Maximum altitude 18:44:01 48° 291° (WNW) 808 3.9 -23.4°
Drops below altitude 10° 18:48:08 10° 217° (SW) 1,978 6.1 -24.0°
Sets 18:50:22 0° 212° (SSW) 2,889 6.9 -24.3°
